Location: Recife
(8.0585°S, 34.8848°W)
Time: 10:25:00
(UTC-03:00)

Altair - Pass Details

Date: 19 April 2026
Orbit: 1501 x 1682 km, 47.2° (Epoch: 20 May)

Event Time Altitude Azimuth Distance (km) Brightness Sun altitude
Rises 19:07:31 0° 344° (NNW) 4,688 10.4 -28.2°
Reaches altitude 10° 19:11:11 10° 356° (N) 3,685 9.6 -29.0°
Enters shadow 19:16:57 27° 33° (NNE) 2,595 8.4 -30.5°
Maximum altitude 19:18:45 28° 51° (NE) 2,510 - -30.9°
Drops below altitude 10° 19:26:13 10° 107° (ESE) 3,651 - -32.7°
Sets 19:29:46 0° 117° (ESE) 4,637 - -33.6°
